GEFSNGP_500_meanwind_186.txt.gz
Wind_Speed
26 25 25 25 24 23 22 21 19 17 16 15 14 13 13 13 12 11 10 10 10 9 9 10 10 10 11 10 10 10 11 12 13 13 14 13 13 12 12 11 11 11 10 10
28 27 26 26 25 24 22 21 20 18 16 15 15 14 14 13 11 10 10 10 9 9 10 10 11 10 11 11 11 11 12 12 13 13 13 13 13 13 12 12 12 12 11 10
29 29 28 27 25 24 23 21 20 19 16 16 15 15 14 13 11 10 10 10 10 10 10 11 11 11 11 11 12 12 12 12 13 13 13 13 13 13 13 13 12 12 12 12
31 30 31 26 24 24 23 22 21 19 17 16 15 14 14 13 12 12 11 10 11 10 11 12 12 12 12 12 12 12 13 13 13 13 13 13 14 14 14 14 13 13 13 13
33 32 30 27 25 24 24 23 22 20 18 17 16 15 15 14 13 13 12 11 11 11 11 13 13 13 13 13 12 12 13 14 14 14 14 14 14 14 15 14 14 14 13 14
34 34 32 27 24 24 25 24 22 21 20 18 17 16 15 15 14 14 13 12 12 11 11 12 13 13 13 14 13 13 13 14 14 14 15 15 15 15 16 16 15 15 15 15
34 34 32 27 25 25 26 22 21 21 21 20 18 16 16 16 16 14 13 14 13 13 12 12 13 13 13 14 14 13 14 14 14 14 14 14 15 15 16 16 16 15 15 15
34 33 30 26 26 26 24 22 22 22 21 20 18 18 17 17 17 16 15 15 15 14 13 13 13 14 14 15 15 14 14 15 15 15 15 15 15 15 15 16 17 16 16 16
32 31 29 28 27 26 24 24 23 22 22 21 19 18 17 18 17 17 16 15 15 15 15 15 15 15 15 15 15 15 15 15 15 16 16 16 16 16 16 16 17 17 17 17
32 29 30 29 28 26 25 24 23 22 22 22 21 19 19 19 18 18 17 16 16 16 16 15 16 15 16 16 15 16 15 15 16 16 17 17 17 17 17 17 17 16 17 17
32 30 31 30 29 26 26 25 24 23 22 22 22 21 20 20 19 18 18 17 17 17 16 16 17 17 17 16 16 16 16 17 16 16 17 17 17 17 18 18 18 18 18 18
30 30 32 30 30 28 27 26 25 24 23 21 20 21 21 21 20 19 18 18 18 18 17 17 17 18 18 17 17 17 17 18 18 17 17 18 18 18 18 19 19 19 19 19
31 31 31 30 30 29 28 27 27 25 24 23 22 22 22 21 20 20 19 19 19 18 18 18 17 18 18 17 18 18 18 19 19 19 19 19 19 19 20 20 20 20 20 20
32 32 32 32 31 31 29 28 28 27 25 24 24 23 22 22 21 20 20 20 20 20 19 19 18 18 18 18 18 18 19 19 19 20 20 20 20 20 20 20 21 21 21 21
32 33 32 32 31 30 29 29 29 28 26 25 24 24 23 23 22 21 21 21 21 21 20 19 19 19 19 19 18 19 19 19 20 20 20 21 21 21 20 20 20 21 22 22
33 32 32 32 32 31 30 30 30 29 28 27 26 25 25 24 24 24 23 23 23 22 22 21 20 20 20 19 19 19 19 19 20 21 21 21 21 21 20 20 20 21 22 22
33 33 32 32 32 32 32 31 30 30 28 28 27 27 26 26 25 25 24 24 24 24 23 23 22 22 22 21 20 20 20 20 20 21 21 21 22 22 21 21 21 22 22 22
32 32 32 32 32 31 32 30 30 30 30 29 28 27 27 26 26 25 25 24 24 24 24 24 23 23 22 22 22 22 22 21 21 21 21 21 22 22 22 21 21 22 22 22
31 31 31 32 32 32 31 30 30 31 29 29 28 27 28 27 27 26 25 25 24 24 24 24 24 23 22 22 22 22 22 22 22 22 22 22 22 22 21 21 21 21 21 22
31 31 31 31 31 32 31 30 31 31 29 29 29 28 29 29 28 27 26 26 25 25 25 25 24 24 23 23 23 23 23 24 23 23 22 22 22 22 22 22 22 22 21 21
29 30 30 30 29 30 31 30 30 30 29 29 29 28 28 29 29 28 27 26 26 26 26 26 26 25 24 24 24 24 25 25 25 24 24 24 23 23 24 24 24 23 23 23
28 29 30 30 29 29 29 29 30 30 30 29 28 28 28 28 28 29 28 27 27 27 27 27 27 26 26 26 26 26 26 25 25 25 26 26 25 25 25 25 25 25 25 25
27 28 29 29 29 28 29 29 30 30 30 30 29 29 29 28 28 28 28 28 28 28 27 27 27 28 27 26 26 26 26 26 26 26 26 27 27 27 27 27 27 27 27 27
26 26 28 29 29 28 28 29 30 29 29 29 29 29 29 28 29 29 29 29 29 28 28 27 27 28 27 27 27 26 26 26 26 27 27 28 28 28 27 28 28 28 28 28
25 27 28 28 29 28 28 28 28 28 29 29 30 29 29 29 29 29 29 29 29 29 28 28 28 28 27 27 27 27 27 27 27 27 28 28 28 28 28 28 28 29 29 29
25 26 27 27 27 28 28 28 27 28 29 30 30 29 29 30 30 30 30 30 30 30 29 29 29 29 29 28 28 28 28 28 28 29 28 28 28 28 28 29 29 29 29 29
25 25 26 26 27 27 28 28 28 28 29 30 29 29 29 29 30 30 31 31 30 30 30 30 30 30 30 30 30 30 29 29 29 29 29 29 29 29 29 29 29 30 31 31

GEFSNGP_500_meanwind_192.txt.gz
Wind_Speed
26 26 25 24 24 24 24 23 21 19 18 16 16 16 16 15 14 13 12 11 11 10 10 10 10 9 10 10 10 10 10 11 11 12 12 12 12 12 12 12 12 11 12 11
26 26 27 26 25 25 24 23 22 21 18 17 17 16 16 15 14 13 13 12 12 11 10 10 10 10 10 10 10 10 9 10 11 11 12 11 12 12 12 13 12 12 12 12
28 27 28 29 26 25 24 24 23 21 19 18 17 16 15 15 14 14 13 13 12 12 11 11 10 11 11 11 11 10 10 11 11 11 11 11 11 12 12 13 13 12 12 12
30 29 30 28 26 26 26 24 23 22 21 19 17 16 16 15 15 14 14 13 12 11 11 11 11 11 11 11 11 11 12 12 12 12 11 11 12 13 13 13 13 13 13 13
30 31 30 28 27 27 27 25 24 23 22 21 19 18 16 16 15 15 14 14 12 11 11 11 11 11 11 11 12 12 12 13 13 13 12 12 12 13 13 13 13 13 14 14
30 30 29 26 26 27 27 26 24 24 23 22 20 19 17 17 17 16 15 14 13 13 12 12 12 11 11 12 12 12 13 14 14 14 14 13 12 13 14 14 14 14 14 13
31 30 28 26 26 27 27 25 24 23 23 22 21 19 19 19 18 18 17 16 15 14 14 13 13 13 12 12 12 13 14 14 14 14 14 14 14 14 14 15 14 14 14 14
31 30 27 26 27 28 26 25 25 24 23 23 21 20 20 20 20 19 18 18 17 16 15 15 14 14 13 13 13 13 14 14 15 15 15 14 14 14 15 16 15 15 15 16
33 30 27 27 28 28 27 26 25 25 24 24 23 22 22 21 21 21 20 20 19 18 16 16 16 15 14 14 14 13 13 14 14 15 15 15 15 15 15 15 16 16 16 16
31 30 30 29 28 28 29 28 27 26 26 25 24 23 24 23 22 21 21 21 20 19 18 17 17 17 16 16 16 15 14 14 14 15 15 16 16 16 15 15 16 16 16 16
32 30 30 29 30 29 29 29 28 27 27 26 26 25 25 24 22 22 21 21 21 20 19 18 18 18 18 17 17 16 16 16 16 16 16 16 16 16 16 17 17 16 16 16
32 32 32 29 29 30 29 28 27 27 27 26 26 25 25 25 24 22 22 22 21 21 20 20 19 19 19 18 17 17 17 16 16 17 17 16 16 17 16 17 17 17 17 17
31 32 32 29 28 29 28 27 27 28 28 27 26 25 25 25 24 23 22 22 22 21 21 21 20 20 19 19 18 17 17 17 17 16 17 17 17 17 17 17 17 17 18 18
31 31 31 29 28 28 29 28 27 28 30 29 27 26 26 25 25 24 23 22 22 22 22 21 21 21 21 20 19 19 18 18 18 17 17 17 17 18 18 18 19 19 19 19
31 31 31 30 29 29 29 28 27 28 30 30 29 28 27 26 26 25 25 24 24 23 23 22 22 22 21 21 21 21 20 20 19 19 19 19 18 19 19 20 20 20 20 20
32 32 31 31 30 29 29 29 29 28 30 31 30 29 28 27 27 26 26 25 25 24 24 23 22 23 22 22 22 22 22 22 21 21 20 20 20 20 20 21 21 21 21 21
34 33 32 30 29 30 30 29 29 29 29 30 30 29 29 29 28 27 27 26 26 26 25 24 24 23 23 23 23 23 22 22 22 22 22 21 21 21 21 21 22 22 23 23
33 32 32 31 30 30 30 30 30 30 30 29 30 30 29 28 28 27 27 27 27 27 26 26 25 24 24 24 24 24 24 23 23 23 23 22 22 23 22 22 22 22 22 23
31 31 31 31 30 30 30 30 30 30 30 30 30 30 29 29 28 28 27 27 28 27 26 26 25 25 25 25 26 25 25 25 25 25 24 24 24 24 24 23 23 23 23 23
29 29 30 30 30 30 30 30 30 30 30 30 30 30 30 30 29 28 28 27 27 27 27 27 27 26 26 26 26 27 26 26 25 25 25 25 25 25 24 24 24 24 24 24
28 28 29 30 30 30 29 30 30 30 30 29 30 30 31 31 30 29 28 29 28 28 28 28 27 27 27 27 26 26 26 25 26 26 26 26 26 26 26 26 26 26 26 26
26 27 27 29 29 28 28 29 29 29 29 29 29 30 30 31 31 29 29 29 28 28 28 28 28 27 28 28 27 27 26 26 27 27 27 27 28 28 28 28 28 28 28 27
25 25 26 27 26 27 27 27 28 28 28 29 29 29 29 29 30 30 29 29 29 28 29 29 29 28 28 29 29 29 28 28 28 29 29 29 29 29 29 29 29 29 28 28
24 24 25 26 26 26 26 27 27 27 28 29 30 30 29 30 30 29 29 29 29 28 29 29 30 30 30 30 29 30 30 30 30 30 30 30 31 31 31 30 29 29 29 29
25 25 25 26 27 26 26 27 27 27 28 29 30 31 31 30 30 30 30 29 29 29 29 29 30 30 29 29 30 30 30 31 31 31 31 31 32 32 31 31 30 29 29 29
25 26 26 26 27 26 26 26 28 28 28 29 29 30 30 30 30 30 29 29 29 29 29 30 30 30 29 29 30 31 31 31 31 31 32 32 31 31 31 31 31 31 31 31
24 25 26 26 26 26 27 27 28 28 28 28 28 28 29 29 30 30 30 30 29 29 30 30 30 30 30 30 30 31 30 30 30 30 30 30 30 31 31 31 31 31 31 31

GEFSNGP_500_meanwind_198.txt.gz
Wind_Speed
26 25 25 25 25 25 25 24 23 22 21 19 18 17 16 15 14 14 13 13 13 12 12 11 11 11 11 11 11 11 11 11 11 11 11 11 11 11 11 11 11 11 11 11
26 26 27 26 26 26 26 25 25 24 22 19 18 17 17 16 15 14 14 13 13 13 12 11 11 10 11 11 12 11 11 11 12 12 11 11 11 11 11 11 12 11 11 11
26 27 28 28 26 27 27 26 25 25 22 21 20 19 18 17 15 15 15 14 14 13 13 12 12 11 11 11 12 12 12 11 12 12 12 12 12 11 11 11 11 11 11 12
25 27 29 27 26 26 26 26 26 25 23 22 21 20 20 19 17 16 16 15 15 13 13 13 13 12 12 11 12 12 12 12 12 12 12 12 12 12 12 11 11 11 12 12
25 27 27 27 25 25 26 26 26 25 23 22 21 21 21 21 20 18 18 17 16 15 14 14 13 13 13 12 11 12 13 13 13 13 12 12 12 13 12 12 11 12 12 13
25 26 26 25 25 24 26 26 26 25 23 22 23 22 21 21 21 20 18 18 18 16 15 14 14 14 14 13 12 12 12 13 13 13 13 13 12 13 13 13 13 13 13 13
25 26 25 23 24 25 26 25 25 24 24 23 23 22 21 22 21 20 19 19 18 18 17 16 15 15 14 14 13 13 13 13 13 13 13 13 13 13 13 14 14 14 14 14
25 26 25 23 24 25 24 25 25 25 25 24 23 23 22 22 22 21 20 19 18 18 17 17 16 16 16 15 15 14 14 15 15 14 14 14 13 13 13 14 14 14 15 15
27 27 25 23 24 25 25 25 25 26 26 25 24 24 24 23 22 21 20 19 19 19 18 18 18 17 17 17 16 16 15 15 16 16 15 15 15 15 15 14 14 15 15 16
27 28 27 25 26 26 26 25 25 26 27 26 26 26 26 25 24 23 21 20 20 20 19 19 19 18 18 18 18 17 17 16 16 16 17 17 16 16 15 15 14 15 15 16
27 28 28 27 27 27 27 27 27 27 27 26 26 26 26 26 25 24 23 22 22 21 20 20 19 19 19 19 18 18 18 18 17 17 17 18 17 17 17 16 16 16 17 17
28 28 28 28 27 27 27 26 27 27 27 26 27 27 27 27 26 25 24 24 23 23 22 21 21 20 20 20 19 19 19 19 18 18 18 18 18 18 18 18 18 18 18 18
28 28 28 29 28 27 27 27 26 27 27 26 26 27 28 28 28 27 26 25 25 24 23 22 22 21 21 21 21 20 20 20 19 19 19 19 19 19 19 19 19 18 18 18
28 28 29 29 28 28 28 27 27 27 27 27 27 28 29 29 29 28 27 26 26 25 24 23 23 23 23 22 22 22 21 21 20 20 20 20 20 20 20 20 19 19 19 19
28 29 30 30 29 28 28 28 28 27 27 28 28 28 29 30 29 28 28 28 27 26 26 25 24 24 24 24 23 23 23 22 22 22 21 21 21 21 21 21 21 21 21 21
28 28 30 30 30 29 29 29 29 28 28 28 29 29 30 30 30 29 29 29 28 27 27 26 25 24 24 24 24 24 23 23 23 23 23 22 22 22 22 22 22 22 22 22
28 28 29 30 30 31 30 29 30 29 29 29 29 29 30 31 30 30 29 29 29 28 28 27 26 25 24 25 24 24 24 24 24 23 24 24 23 23 23 23 23 23 23 23
27 28 29 29 29 29 29 28 29 29 29 29 29 29 29 30 30 29 29 29 29 28 28 27 26 26 25 25 25 24 24 24 24 24 24 24 24 24 24 24 24 24 23 24
28 28 29 30 30 29 29 28 29 29 29 28 28 29 30 30 31 30 30 30 30 29 28 27 27 26 26 26 25 25 25 25 25 25 25 25 24 24 25 25 25 25 25 25
29 29 30 30 30 29 29 30 29 29 30 30 29 30 30 30 31 30 30 30 30 30 30 29 28 27 27 27 27 26 26 26 26 26 26 26 25 25 26 26 27 27 27 27
28 29 29 30 29 28 28 28 28 28 29 30 30 30 30 30 30 31 31 30 30 31 31 30 29 29 29 28 28 28 28 28 28 27 27 28 28 28 28 29 28 28 28 28
27 27 27 28 28 28 28 27 27 27 28 29 30 31 31 31 31 31 31 30 30 31 31 31 30 30 30 29 29 29 29 29 29 29 29 29 29 29 28 28 29 29 29 29
24 25 25 26 26 27 27 27 27 27 28 28 29 30 30 30 30 31 30 30 29 30 31 31 31 30 30 30 30 30 29 29 30 29 29 29 29 29 29 29 29 29 29 29
22 23 24 24 25 26 27 27 26 26 27 28 29 29 29 29 30 30 29 29 29 29 30 30 30 30 30 29 30 30 30 30 30 30 29 28 29 29 29 29 29 29 30 30
21 23 24 24 24 25 26 27 27 27 27 27 28 29 29 28 28 29 29 29 29 29 29 30 30 30 30 30 29 29 29 29 29 29 29 29 29 29 29 29 28 29 29 30
22 23 24 24 24 25 26 27 27 28 27 27 27 27 28 28 29 29 29 29 29 29 29 29 30 30 30 29 29 28 29 29 29 28 28 29 29 29 28 28 28 29 30 30
22 22 23 24 24 25 26 27 28 29 29 28 28 28 28 29 29 30 30 29 29 29 29 29 29 29 28 29 29 29 29 29 29 29 28 29 29 29 29 29 30 30 30 30

GEFSNGP_500_meanwind_204.txt.gz
Wind_Speed
25 25 26 25 25 25 26 26 27 26 25 24 22 21 20 20 19 18 17 16 15 15 15 14 12 11 10 10 10 10 9 9 10 9 9 9 9 8 9 9 9 9 9 10
25 25 26 26 26 27 27 27 27 27 25 23 23 23 23 22 20 19 18 17 16 16 16 14 13 12 11 10 10 10 9 9 10 10 10 9 9 9 9 10 10 10 9 9
25 25 27 27 25 27 26 26 27 26 25 24 24 23 23 23 22 20 19 18 18 17 17 16 14 13 12 11 11 11 10 10 10 10 10 10 10 10 10 10 10 10 11 11
25 25 27 24 24 25 26 25 26 26 25 25 24 24 23 23 22 21 20 19 18 18 17 16 15 14 13 12 12 12 12 11 11 11 11 11 11 11 11 11 11 11 10 11
24 25 26 23 23 24 25 25 25 25 24 24 24 25 24 23 23 22 22 21 20 19 18 17 16 15 14 14 13 13 12 12 12 12 12 12 12 12 12 12 12 12 11 11
25 25 25 22 22 22 24 25 24 25 24 23 23 24 23 22 23 23 23 22 21 20 19 18 17 16 15 15 14 14 14 13 13 13 13 12 12 13 13 13 13 13 13 12
25 25 25 21 21 23 23 23 23 24 24 24 23 24 22 22 23 23 24 23 22 20 20 19 18 17 17 16 16 15 15 14 14 14 14 14 13 13 13 14 14 15 15 14
25 25 24 21 22 23 23 22 23 23 24 25 24 24 24 24 23 23 24 24 23 21 20 20 19 18 17 17 17 16 16 15 15 15 15 15 15 14 14 14 15 15 15 15
26 25 25 24 23 23 23 23 24 24 24 25 25 24 24 24 24 24 24 24 24 23 22 21 20 19 18 17 17 17 16 16 16 16 16 16 16 15 15 15 15 15 15 15
26 25 26 26 24 24 25 25 26 26 25 26 25 24 24 24 25 25 25 24 24 24 23 22 22 21 20 19 18 18 18 18 17 17 17 17 16 16 16 17 17 16 16 16
26 26 27 27 27 26 27 27 27 27 27 26 25 25 25 26 26 26 25 25 25 25 24 23 24 23 22 20 20 20 19 19 18 17 17 17 17 17 17 17 17 17 18 18
27 27 28 27 28 29 27 27 28 28 28 27 26 26 26 27 27 26 26 26 26 26 26 25 25 25 24 22 22 21 20 20 19 19 18 18 18 18 18 18 18 18 19 19
27 27 28 28 27 28 28 28 29 29 28 27 27 27 27 28 27 27 27 26 26 27 27 26 26 25 24 24 23 22 21 20 20 19 19 18 18 18 18 18 19 19 19 20
28 28 29 29 29 28 28 29 30 31 30 29 29 28 28 28 28 28 28 27 27 27 27 27 26 25 25 24 23 23 22 21 20 20 20 19 19 19 19 19 19 20 20 20
29 29 29 30 29 28 28 28 30 31 31 31 30 29 28 28 28 28 28 28 27 27 27 27 27 26 26 25 24 23 22 22 21 21 20 20 20 20 20 21 21 20 20 21
29 29 29 30 30 29 28 28 28 29 30 30 30 30 29 28 28 28 28 28 27 27 27 27 27 26 26 25 24 23 22 22 22 21 21 21 20 20 20 21 22 22 21 21
29 29 29 29 30 30 30 29 28 29 30 30 31 30 30 30 29 29 28 27 28 28 28 27 27 27 26 26 25 24 24 24 23 22 22 22 21 21 21 21 21 21 22 22
29 29 29 29 30 31 31 30 30 30 30 31 31 31 31 31 30 29 28 28 28 28 28 27 27 27 27 27 26 26 25 24 24 24 23 22 22 22 22 22 22 22 22 23
29 30 30 30 30 30 31 29 29 31 31 31 31 31 31 31 30 28 28 29 29 28 28 28 28 28 28 28 28 27 26 26 26 25 25 24 24 24 24 24 23 23 24 24
29 29 30 30 30 30 30 29 29 30 31 31 31 30 30 30 30 29 29 29 29 29 28 28 29 29 29 29 29 28 28 28 28 27 26 26 26 26 26 26 25 25 25 26
29 29 29 29 29 29 29 29 28 28 29 30 31 31 31 30 30 30 29 28 28 30 30 30 30 30 30 30 30 29 30 29 29 29 28 28 28 28 27 27 27 27 27 27
28 28 27 27 28 27 27 27 27 27 27 28 29 30 31 31 31 30 29 29 29 30 31 31 30 30 30 31 31 30 30 30 30 30 30 30 29 29 29 29 29 28 28 28
28 26 26 26 27 26 26 26 26 26 27 28 28 29 30 30 30 31 31 30 30 30 31 31 31 31 31 32 32 31 32 31 31 31 31 31 30 30 29 29 29 29 29 29
27 26 26 27 27 27 26 25 25 26 26 27 27 27 28 29 29 30 31 31 31 31 31 32 32 32 33 33 32 32 32 32 31 31 31 31 31 30 30 30 30 30 30 30
26 26 26 26 27 27 27 26 25 26 26 26 27 27 28 29 29 29 29 30 31 31 31 31 32 32 32 32 32 32 32 32 31 31 31 31 31 31 31 31 31 31 31 31
25 25 26 26 26 26 27 27 27 27 27 28 28 28 29 29 30 30 30 30 30 30 30 31 31 31 31 31 31 32 32 32 32 32 32 32 31 31 31 31 31 31 31 31
24 24 24 25 25 26 26 27 27 27 28 29 29 28 29 29 29 29 29 29 29 29 30 30 31 31 31 31 31 31 32 32 32 32 32 32 32 32 31 31 31 31 30 30

GEFSNGP_500_meanwind_210.txt.gz
Wind_Speed
23 22 23 23 23 22 23 23 24 23 23 22 20 19 18 18 18 18 17 17 16 15 14 13 12 12 11 12 11 11 11 10 9 8 8 8 8 8 8 9 10 9 9 9
24 23 24 24 24 23 22 22 23 24 24 23 21 20 19 19 19 20 19 18 18 16 14 14 13 12 12 12 12 11 11 11 10 9 9 9 9 9 9 9 10 10 10 9
23 23 25 25 23 23 23 22 22 24 24 24 22 21 20 20 20 20 20 20 19 17 15 15 14 14 13 13 13 12 12 12 12 11 11 10 10 10 10 10 10 11 11 10
22 22 25 23 22 22 23 22 21 23 23 23 23 23 22 21 21 20 20 21 21 20 18 16 16 15 14 14 14 13 13 13 13 12 12 12 11 11 10 11 11 11 11 11
23 23 24 22 21 22 22 22 22 23 23 23 23 24 23 21 21 21 19 19 20 21 19 18 18 16 16 15 15 14 14 14 14 13 13 13 12 12 11 11 12 12 11 12
25 25 23 22 22 22 22 23 22 22 22 22 23 24 22 22 21 21 21 20 20 20 20 20 19 18 17 17 16 15 15 15 15 15 15 14 13 13 12 12 12 13 13 12
25 25 24 22 23 23 24 22 21 22 21 21 22 23 23 23 23 22 22 21 21 21 21 21 20 19 19 18 18 17 16 15 15 16 15 15 14 14 14 13 13 14 14 14
26 26 24 23 24 24 24 23 22 22 22 22 21 21 22 23 24 23 23 22 22 22 22 22 22 21 20 19 19 19 17 16 16 16 16 16 15 15 15 15 15 15 15 16
27 26 24 24 25 25 25 25 25 24 22 22 22 22 22 23 23 24 23 23 23 23 23 23 22 22 21 21 21 20 19 18 18 17 17 17 17 17 16 16 16 16 16 16
27 26 26 25 25 25 26 25 25 25 25 23 23 23 23 22 23 23 23 23 23 23 24 24 24 23 22 22 23 22 21 20 19 19 19 19 18 18 18 18 17 17 17 18
27 26 26 26 26 25 25 25 25 25 25 24 24 23 23 23 23 23 23 24 24 23 24 25 25 25 24 23 24 23 22 21 20 20 20 20 20 20 19 19 18 18 18 18
26 26 27 27 27 27 26 25 26 26 25 24 23 23 23 24 24 24 23 23 24 24 24 25 25 25 26 25 25 24 23 23 22 21 21 21 21 21 20 20 19 18 18 18
26 27 27 27 27 27 27 26 26 26 25 25 24 23 23 24 24 23 24 23 24 25 25 25 25 26 26 26 26 25 24 23 23 22 21 22 22 21 21 20 20 19 19 19
26 27 27 27 26 26 27 27 27 27 27 26 26 24 24 24 24 24 25 25 25 25 26 26 25 26 27 28 27 27 25 25 24 23 23 22 23 22 21 21 21 20 20 20
27 27 27 28 27 26 27 27 27 27 27 26 25 24 24 24 25 25 26 26 26 26 26 26 27 27 28 29 29 28 27 26 26 25 24 24 23 23 22 22 22 22 21 21
27 27 27 28 28 28 28 27 26 26 26 26 26 26 26 26 26 27 27 28 28 27 26 27 27 28 28 29 29 30 29 28 27 27 26 25 24 24 23 23 23 23 22 22
26 26 26 27 27 27 26 26 25 25 25 27 27 27 27 26 27 27 27 28 27 27 27 27 27 28 29 29 29 30 30 29 28 28 27 26 25 25 25 24 24 23 23 23
25 25 25 26 27 26 25 25 25 25 26 28 29 29 29 28 27 27 27 27 27 27 27 27 27 28 28 29 30 30 30 30 29 29 28 28 27 26 26 25 25 25 24 24
24 24 24 24 25 25 26 26 25 26 27 29 29 29 29 28 27 27 28 28 27 27 27 27 28 28 29 30 30 31 31 31 30 30 29 29 28 28 27 26 26 25 25 25
23 24 25 25 25 25 25 25 26 26 26 28 28 29 29 28 28 28 27 27 27 27 28 29 29 29 29 30 31 31 31 31 31 30 30 30 30 30 29 28 27 27 26 25
24 25 26 26 26 25 26 27 27 28 27 27 28 28 29 29 28 28 28 27 27 28 28 28 28 29 29 30 31 31 31 31 31 31 31 31 30 30 29 28 28 27 26 26
24 24 24 25 25 26 26 27 28 28 28 28 28 29 29 29 29 28 28 27 26 26 27 28 28 29 30 30 31 31 31 32 32 32 32 31 31 30 30 30 30 29 29 28
23 23 23 23 24 25 26 26 26 26 26 26 26 28 29 29 28 28 28 27 27 27 27 27 28 29 30 31 31 32 32 33 33 32 32 32 32 32 31 31 31 31 31 30
23 23 23 23 24 24 25 25 25 26 26 26 27 27 28 28 28 28 29 29 28 28 27 27 28 29 29 30 31 32 32 32 33 33 32 32 32 32 32 32 32 31 32 32
23 24 24 23 23 24 24 25 26 26 26 26 27 27 28 28 27 27 29 29 29 29 28 28 29 29 30 30 30 31 32 32 31 32 32 32 31 32 33 33 33 33 33 33
23 24 23 23 23 24 24 25 25 25 26 26 26 26 27 27 28 27 28 29 29 30 30 29 30 30 30 30 31 31 31 32 32 32 32 32 32 32 32 33 33 33 33 34
22 22 22 22 22 23 24 25 25 25 25 25 25 25 25 27 28 28 28 28 29 30 30 30 30 30 30 30 31 31 31 32 32 32 32 31 31 31 31 32 32 33 33 34

GEFSNGP_500_meanwind_216.txt.gz
Wind_Speed
23 23 23 24 24 24 24 24 24 23 22 21 20 21 21 21 21 21 20 19 19 18 19 17 17 17 17 16 14 13 13 12 12 12 12 11 11 11 10 10 10 10 10 10
24 24 25 25 24 24 24 25 25 25 23 22 22 22 22 21 21 21 20 20 19 19 19 19 18 17 17 17 16 15 14 13 14 13 13 12 12 11 11 11 11 11 11 11
25 24 26 25 23 24 24 24 25 25 24 23 23 24 23 23 22 21 20 20 20 20 19 19 18 18 17 17 17 16 15 15 15 15 14 14 13 12 12 12 12 12 12 12
26 25 26 23 22 23 24 24 24 24 23 23 23 24 24 24 22 21 21 20 20 20 20 19 19 19 19 19 18 17 16 16 16 16 15 14 14 13 13 13 13 13 13 12
27 26 25 23 22 23 24 24 23 23 23 22 22 23 24 23 23 22 21 20 20 20 20 20 21 21 21 20 20 19 18 17 17 16 16 15 15 14 14 14 13 13 13 13
27 27 26 24 24 24 25 24 24 24 23 23 24 24 22 22 23 22 21 22 21 20 20 20 22 22 21 21 21 20 19 19 18 18 17 16 16 16 16 15 14 14 14 15
27 28 27 25 25 25 25 24 24 24 25 25 25 24 22 22 22 21 21 22 21 21 20 20 21 22 22 22 22 22 21 20 20 19 19 18 17 17 17 17 16 16 15 16
28 29 27 26 27 27 27 26 26 25 25 25 26 25 24 23 22 21 21 21 21 21 21 21 20 22 23 22 23 23 22 21 21 21 20 19 18 18 17 17 17 17 17 16
28 28 27 27 27 28 28 28 28 27 27 27 26 25 25 24 23 23 22 22 21 21 21 22 22 21 22 23 24 23 23 22 21 21 20 20 19 19 19 18 18 18 18 17
28 27 27 28 28 28 29 30 29 28 28 28 27 26 25 24 24 24 22 22 22 22 22 22 23 22 21 22 24 24 23 23 22 22 21 21 21 20 20 19 18 18 18 17
27 26 27 27 28 29 29 30 30 29 28 28 27 27 25 24 25 25 24 23 23 23 23 22 22 23 23 23 24 24 24 23 24 24 23 23 22 22 21 21 20 19 19 18
26 26 28 27 27 29 30 29 29 29 28 28 28 27 27 27 26 26 25 25 24 24 25 24 24 23 23 23 24 25 25 24 24 24 24 24 24 23 23 22 22 21 21 21
27 28 28 27 28 29 30 29 29 29 28 27 28 27 27 28 28 27 27 27 26 25 25 26 26 25 25 25 25 26 26 26 25 25 25 25 25 25 24 24 23 23 22 22
27 28 28 28 28 29 30 29 29 28 28 28 28 28 28 29 29 28 28 28 28 27 27 27 27 27 26 26 26 27 27 28 27 27 26 26 26 25 25 25 24 24 24 24
26 27 27 27 28 28 28 28 28 28 28 27 28 28 28 28 28 28 29 29 29 28 28 27 28 27 27 27 28 28 28 28 29 29 28 27 26 26 26 26 26 25 25 25
25 26 26 27 27 27 27 28 28 28 27 27 27 27 27 27 27 27 28 28 29 28 28 27 28 28 28 27 27 28 28 29 29 30 30 29 28 27 27 27 27 26 26 26
25 26 26 26 27 27 27 27 28 28 27 26 26 26 26 27 27 28 27 28 28 28 28 28 28 28 28 28 28 28 29 30 30 31 31 31 29 29 29 29 28 27 27 27
25 25 25 26 26 26 26 26 27 27 27 25 26 26 26 27 28 28 27 26 27 27 27 28 28 28 28 28 29 29 29 30 31 32 32 32 31 30 30 30 29 29 28 28
25 25 25 26 26 26 26 26 26 26 26 25 26 27 27 26 27 27 28 27 27 27 27 27 28 28 28 29 30 29 29 30 31 32 33 32 32 31 31 31 31 30 30 29
25 25 25 26 26 25 25 25 25 25 25 25 25 26 27 27 26 26 28 29 29 29 29 29 29 29 29 29 29 29 29 30 31 32 33 33 33 32 32 32 32 32 30 30
24 25 25 25 25 24 24 24 24 24 25 25 26 26 26 26 26 26 27 28 28 29 29 29 29 30 30 30 30 30 30 31 32 32 32 33 33 33 33 33 33 33 32 31
25 24 24 24 24 23 23 23 23 23 24 24 25 25 26 26 26 26 26 27 28 28 28 28 29 29 30 30 31 31 31 31 31 32 32 33 33 33 33 33 33 33 33 33
25 24 24 24 24 24 23 23 24 23 23 24 25 25 25 25 25 26 26 26 27 27 27 27 28 29 29 29 30 30 30 31 32 32 32 33 33 33 33 33 33 34 33 33
24 24 24 24 24 24 25 24 24 23 23 23 24 25 25 25 25 26 26 27 27 27 27 28 28 29 29 29 28 29 30 30 31 32 33 33 34 34 34 34 35 35 34 34
24 24 24 24 24 24 24 25 24 24 24 24 25 25 26 25 25 26 27 28 28 28 28 27 28 29 29 29 29 30 30 31 32 33 33 34 34 35 35 35 35 34 34 34
25 25 25 25 25 24 24 24 24 23 23 24 24 25 26 26 26 26 26 27 28 28 27 27 29 29 29 29 29 30 31 32 32 33 33 34 34 35 35 35 35 34 34 34
26 26 26 25 24 24 23 24 24 24 24 25 25 25 25 25 25 25 25 25 26 27 27 28 29 29 29 29 30 30 31 31 32 33 34 34 34 34 33 34 34 34 35 35

GEFSNGP_500_meanwind_222.txt.gz
Wind_Speed
23 23 23 23 23 23 23 23 23 22 22 22 22 22 21 21 21 21 21 21 21 21 21 20 20 20 20 20 20 19 18 18 18 17 16 16 15 14 14 14 13 12 12 13
23 24 24 24 24 24 24 24 24 24 24 23 23 23 22 21 21 22 22 22 22 21 21 21 21 21 21 21 22 21 20 19 19 19 18 18 16 15 15 14 13 13 12 13
24 24 25 25 24 25 25 25 25 25 24 24 24 24 23 22 22 23 23 23 23 22 22 22 22 22 22 22 22 21 21 21 20 20 20 19 18 17 16 15 14 13 13 13
25 25 26 25 25 25 26 25 25 25 25 25 25 25 25 24 23 24 24 24 24 23 23 23 22 23 23 23 22 22 21 21 21 20 20 20 19 18 17 16 15 14 14 14
26 27 26 25 25 25 25 25 25 25 25 25 25 25 25 25 24 24 24 24 24 24 24 24 23 23 24 23 23 22 22 21 21 22 21 21 21 20 19 17 16 15 15 15
27 27 27 26 25 25 25 25 24 25 25 24 25 25 25 25 24 24 23 23 23 23 23 24 24 23 24 24 23 23 23 22 21 22 22 22 22 21 20 19 18 17 16 16
26 27 27 27 26 25 25 25 25 25 25 24 25 26 25 25 24 24 24 24 23 23 22 23 23 23 23 23 24 23 23 23 22 22 24 23 23 22 21 20 19 18 18 18
26 26 26 26 26 26 26 26 25 25 25 25 26 26 26 26 25 24 25 25 24 23 22 23 23 23 22 23 24 24 24 23 23 22 23 24 24 23 22 22 21 20 20 19
25 26 26 26 26 26 26 26 26 26 25 26 26 26 26 26 26 26 26 26 25 24 23 23 23 23 23 22 22 23 23 23 24 24 24 25 25 24 24 23 22 22 21 21
25 25 25 25 26 26 26 27 27 27 26 26 26 26 26 26 25 25 25 25 25 24 24 23 23 24 23 23 23 23 23 24 24 24 24 25 25 25 24 24 24 23 23 22
24 24 25 24 25 25 26 26 27 27 27 26 26 25 25 25 25 25 25 25 25 24 23 23 23 23 23 23 24 24 23 24 25 26 25 25 25 26 25 26 26 24 24 23
25 24 25 25 25 25 25 25 26 26 25 25 26 26 26 25 25 25 25 24 24 23 23 23 22 22 22 23 23 24 24 24 25 27 26 26 26 27 27 27 26 26 25 25
24 24 25 24 24 25 25 25 26 26 26 26 26 26 26 26 25 25 25 24 24 25 24 24 23 22 23 23 23 24 25 25 25 26 27 27 27 27 28 28 28 27 27 26
23 23 23 24 24 24 25 25 25 25 25 26 26 26 26 25 25 26 26 26 26 26 26 27 26 25 25 25 25 24 24 25 26 26 27 28 28 28 28 29 29 29 28 28
22 23 23 23 24 24 24 24 25 25 25 26 26 26 26 25 25 26 27 27 28 28 28 28 28 28 27 27 27 26 25 25 27 27 28 29 29 30 30 30 30 30 30 29
22 23 23 23 23 23 23 24 25 25 26 26 27 27 26 26 26 26 26 27 27 28 28 28 29 28 29 29 29 28 27 27 28 28 29 30 30 31 31 31 31 31 30 30
22 23 23 23 23 23 24 24 25 25 25 26 26 26 26 27 27 26 27 28 28 28 28 28 29 29 29 29 30 29 29 29 29 29 30 31 31 31 31 32 32 31 31 31
23 23 23 23 24 24 24 25 25 25 25 26 26 26 27 27 26 26 26 27 28 28 28 28 29 29 29 30 30 31 30 30 30 30 30 30 31 32 32 33 34 33 32 32
22 23 23 24 23 24 24 24 25 25 25 25 25 26 26 26 25 25 25 25 26 27 27 28 30 31 31 31 32 31 31 31 31 30 30 30 30 32 33 34 34 34 34 34
23 23 23 23 23 23 23 24 25 25 24 25 25 25 24 24 23 23 23 24 25 26 26 27 28 28 29 29 30 31 31 31 31 31 31 31 31 32 33 35 36 36 35 34
24 23 24 24 24 23 24 24 24 24 24 24 24 23 23 22 22 23 24 25 25 25 26 27 28 28 29 30 30 30 30 30 30 31 31 31 32 33 33 34 35 36 36 36
24 23 23 24 24 23 23 24 24 24 24 23 23 23 23 22 22 23 23 24 24 25 26 27 28 28 29 30 31 31 30 30 31 31 31 32 32 33 33 34 34 35 36 36
23 23 23 24 23 23 23 23 23 23 22 22 22 22 21 21 22 22 22 23 24 25 26 27 27 28 29 29 29 29 30 30 31 31 31 31 31 32 33 34 35 36 37 37
24 24 24 24 23 22 22 22 23 23 22 21 21 22 22 22 22 22 22 23 25 25 26 26 26 27 27 27 28 28 29 29 29 29 29 30 30 31 32 33 34 35 35 36
25 25 24 24 23 22 22 22 23 23 22 21 22 22 22 22 22 23 22 22 23 24 25 26 25 24 24 25 26 27 27 28 28 29 29 29 30 31 32 32 33 34 34 35
25 25 25 25 24 24 24 23 23 23 23 22 22 23 23 23 22 22 21 21 21 22 23 24 25 24 24 24 24 25 25 26 28 28 29 29 29 30 31 31 32 32 32 32
25 25 25 24 24 25 25 25 24 23 22 21 21 21 22 21 20 20 20 20 20 21 21 22 23 23 23 23 23 24 25 25 26 27 28 28 28 29 29 30 31 31 32 32

GEFSNGP_500_meanwind_228.txt.gz
Wind_Speed
22 22 22 23 22 22 23 23 24 23 25 24 25 27 26 26 25 25 24 24 24 24 24 24 23 23 22 21 20 20 20 20 19 19 19 20 19 18 17 16 15 14 14 14
23 23 23 23 23 24 24 25 25 25 26 25 26 26 27 28 27 26 26 25 25 25 25 25 24 24 24 23 22 21 21 21 20 20 20 21 20 19 18 17 16 16 15 15
24 23 23 24 24 25 25 26 26 27 26 26 27 26 26 27 27 26 27 27 26 26 26 26 26 25 25 24 24 23 23 22 21 22 22 22 21 20 19 18 18 18 17 16
25 25 26 24 25 26 26 26 26 27 27 26 27 27 27 27 27 27 27 27 27 27 27 27 27 26 26 26 25 25 24 24 23 23 23 23 22 21 20 19 19 19 19 18
26 27 27 25 25 25 26 27 27 28 27 27 27 27 27 27 27 28 28 28 28 28 28 27 27 27 27 27 26 26 26 25 25 24 24 24 24 23 23 21 20 19 20 19
26 27 27 25 24 25 26 27 26 27 27 27 27 27 27 27 27 28 28 28 29 28 28 27 27 27 27 27 27 26 26 26 26 26 25 25 25 25 24 23 22 21 21 20
25 26 27 25 24 25 26 26 27 27 27 28 28 28 28 28 28 28 28 28 28 28 27 27 26 26 26 25 25 26 26 26 25 25 26 26 26 26 26 25 24 23 23 22
26 26 26 25 26 26 27 27 27 27 28 28 29 29 28 28 29 29 29 28 29 28 27 26 26 26 26 25 25 25 25 25 25 26 27 27 27 27 26 26 25 24 24 23
25 26 26 27 27 27 28 29 29 29 29 29 30 30 29 29 29 29 28 28 29 28 27 26 26 26 26 26 25 25 24 24 24 25 26 27 28 28 27 27 26 26 25 24
25 25 26 27 27 27 28 29 29 29 29 30 30 31 30 30 30 29 29 28 28 28 28 27 26 26 27 26 26 25 24 24 24 24 25 25 26 28 28 27 27 26 26 25
26 25 26 26 26 27 28 29 30 30 30 30 30 30 30 29 29 29 29 28 28 28 27 26 26 27 27 26 26 25 25 24 24 24 25 25 26 27 28 27 27 26 26 25
25 25 25 25 27 28 28 28 29 29 29 29 29 29 29 29 29 28 28 28 29 28 28 27 26 27 27 27 27 26 26 25 25 25 25 25 26 26 26 28 28 28 27 26
24 25 25 26 26 27 27 27 27 28 29 29 29 30 30 29 29 28 28 28 28 28 27 27 27 27 28 28 27 27 27 27 27 26 26 26 26 26 26 26 27 28 28 28
24 25 25 25 25 26 26 27 27 27 28 28 29 29 30 29 29 29 29 29 29 28 27 27 27 28 28 28 28 28 28 28 28 28 27 27 27 27 27 27 27 27 28 29
24 25 25 25 25 26 26 27 28 28 27 27 28 29 28 28 28 29 30 30 29 28 28 27 28 28 28 29 29 29 29 29 30 30 29 29 28 28 28 27 27 28 28 29
23 24 25 25 25 26 26 27 26 26 26 26 27 28 28 28 28 29 29 29 29 28 27 27 27 27 28 29 29 29 30 30 30 30 30 30 30 29 29 29 28 28 29 29
23 23 24 25 25 26 26 25 25 25 26 26 26 27 27 27 28 28 29 29 29 29 28 27 27 28 28 29 30 31 30 31 30 30 31 31 31 32 31 31 31 30 30 30
23 23 24 25 25 25 25 25 25 25 26 26 27 27 27 27 27 28 28 28 28 27 27 27 27 28 28 29 30 31 31 30 30 30 30 30 32 33 33 32 32 31 31 31
23 24 24 24 24 25 25 25 25 26 26 27 28 28 27 27 27 27 27 27 27 27 27 27 27 28 28 29 30 30 30 30 30 31 31 31 32 32 32 32 32 32 32 31
24 24 25 24 25 25 25 25 25 26 26 27 27 27 27 27 28 27 26 27 26 26 27 27 27 28 28 28 29 29 29 29 30 30 31 31 31 31 31 32 32 33 32 32
25 25 25 25 25 25 25 25 25 25 26 26 26 26 26 26 26 26 26 26 25 26 27 27 27 27 28 28 28 29 29 30 30 30 31 32 32 32 32 32 33 33 33 33
26 26 26 26 26 24 25 25 24 25 26 26 25 25 25 25 24 24 24 24 24 25 26 26 26 26 26 27 28 28 29 29 29 30 31 32 32 33 33 33 33 33 33 33
26 26 26 26 26 24 24 24 24 25 25 25 25 25 25 24 23 23 23 23 24 24 25 25 24 24 24 25 26 27 28 29 29 29 30 30 31 32 33 33 32 32 33 32
25 26 26 26 25 25 25 24 24 25 25 25 26 26 25 25 25 24 24 24 24 24 23 23 22 22 23 24 24 24 25 26 27 27 28 28 29 29 30 30 31 31 31 32
26 26 26 26 25 25 25 25 25 26 26 26 26 26 26 26 25 24 23 23 23 23 23 22 21 22 23 23 23 22 23 24 25 25 26 26 26 27 28 29 29 30 31 31
25 25 25 25 25 25 25 26 26 26 27 26 25 25 25 25 24 24 24 23 22 22 22 21 21 21 22 22 22 22 23 23 23 24 25 25 26 26 27 27 28 29 29 30
25 25 25 25 25 25 26 26 26 26 26 25 24 25 25 24 23 23 23 22 22 21 21 21 21 21 21 21 22 22 23 23 24 24 25 25 26 26 26 27 27 28 28 29

GEFSNGP_500_meanwind_234.txt.gz
Wind_Speed
21 21 21 21 21 22 22 21 21 20 21 21 22 23 23 23 23 23 23 22 22 22 22 21 21 21 21 20 20 19 19 19 19 19 19 19 19 19 19 19 19 18 17 16
22 21 21 22 21 22 23 23 22 21 21 22 22 23 24 25 25 25 24 24 23 23 23 22 22 22 22 22 21 20 20 20 20 20 20 19 20 20 20 20 20 19 19 18
22 22 22 22 21 22 23 23 23 22 21 21 22 23 24 25 26 26 26 25 24 24 24 24 24 24 24 23 22 22 22 22 22 22 22 22 22 22 22 22 22 21 21 20
22 22 23 22 21 23 23 23 24 23 22 22 23 24 24 25 26 27 27 26 26 25 25 25 25 25 24 24 24 23 23 23 22 23 23 22 22 22 23 23 23 22 22 21
23 23 23 22 22 24 24 23 24 24 23 24 24 24 25 26 26 27 27 27 27 26 26 26 25 25 25 24 24 24 23 23 22 23 23 23 23 22 23 24 24 23 24 23
22 23 23 22 22 23 24 24 23 24 24 24 25 25 25 25 26 27 27 27 27 27 27 27 26 26 26 25 24 24 23 23 23 23 23 23 23 23 23 23 24 25 25 24
22 23 24 22 22 23 24 23 23 24 24 24 25 25 25 25 26 26 27 27 27 27 27 27 27 27 26 26 25 25 25 25 24 24 25 25 25 25 24 24 24 26 26 26
23 24 23 23 23 23 24 24 24 24 24 24 25 25 26 26 26 27 27 27 28 28 28 28 27 27 27 27 27 26 27 26 26 26 26 26 26 26 26 26 26 26 27 27
23 23 24 24 24 24 25 25 25 25 25 26 26 26 27 27 28 28 28 28 28 29 28 28 28 29 28 29 29 28 28 27 27 26 26 26 26 27 27 27 27 27 27 27
21 21 22 24 25 25 25 26 26 26 26 27 27 27 28 28 29 29 29 29 29 29 28 28 29 29 29 30 30 29 29 28 28 28 27 28 28 28 28 28 28 28 28 28
22 21 22 23 25 25 26 27 27 27 27 28 29 28 29 29 29 29 29 29 28 28 28 28 28 28 28 28 29 29 29 29 29 29 28 29 29 29 29 30 30 29 29 29
21 23 24 23 24 25 25 26 26 27 27 27 28 28 28 28 28 28 28 28 28 27 27 28 29 29 29 29 29 29 28 28 29 29 30 30 31 31 31 30 30 30 29 29
22 22 23 23 23 24 25 25 26 26 26 26 27 27 27 28 27 28 28 28 28 28 28 28 29 30 30 30 30 29 28 28 29 29 30 31 32 31 30 30 30 30 29 29
22 22 23 23 23 24 25 25 26 26 26 27 27 27 27 27 27 27 27 28 28 28 29 29 29 29 30 31 31 31 30 29 30 30 30 31 32 31 31 31 31 30 31 30
23 23 23 23 23 24 24 25 26 26 26 26 27 27 27 27 26 26 27 28 29 29 29 29 29 29 30 31 31 31 30 30 30 30 30 32 32 32 32 32 32 32 31 32
23 22 22 23 24 24 23 24 24 24 25 25 26 26 26 27 27 27 27 28 29 29 29 29 30 30 30 31 31 30 30 30 30 30 30 31 31 32 32 33 32 32 32 33
22 22 22 22 23 23 23 23 24 24 24 25 25 25 26 26 27 27 27 28 28 28 29 29 29 28 29 30 31 30 29 29 30 30 30 30 31 31 32 32 32 32 32 33
21 22 22 22 23 23 24 24 25 25 25 25 25 25 25 26 26 27 28 28 29 29 28 28 28 28 29 30 30 30 29 29 29 29 29 30 30 30 30 30 31 31 32 33
21 21 22 22 22 24 24 24 24 24 24 24 24 24 25 25 26 27 27 27 28 28 27 27 27 27 28 29 29 29 29 29 29 29 29 29 29 29 29 29 30 31 31 32
22 22 22 22 22 23 24 24 24 23 24 24 24 24 25 25 25 26 26 27 27 27 27 26 26 26 26 27 27 28 27 26 27 28 28 29 29 29 28 28 29 30 31 31
21 22 23 23 22 22 23 23 23 23 23 24 25 25 25 25 25 25 25 26 26 26 26 26 25 24 25 26 26 26 25 23 24 25 26 26 26 27 27 27 28 28 29 30
23 23 23 23 23 23 23 23 23 23 24 24 25 25 25 25 25 24 25 26 26 25 25 25 24 24 24 24 24 23 22 21 21 22 22 23 24 25 25 26 26 27 27 28
24 24 24 24 24 23 23 23 24 24 25 25 25 25 25 24 24 24 25 25 26 25 24 24 24 23 22 22 21 20 20 20 20 20 20 20 21 22 23 24 24 25 26 27
25 25 25 25 24 24 24 24 25 25 25 25 25 25 25 24 24 25 24 24 25 24 23 23 23 22 21 20 19 18 18 18 18 18 19 19 20 21 21 22 23 24 25 26
25 25 25 25 25 24 24 24 24 25 24 25 25 24 24 24 24 24 24 24 24 22 22 23 22 21 19 18 18 18 18 18 18 18 18 19 20 20 21 21 22 23 25 26
23 24 24 24 24 24 24 25 25 25 24 25 25 24 24 23 23 23 23 22 21 21 22 22 21 20 18 17 18 18 18 17 18 18 19 19 20 20 21 22 22 23 25 26
24 23 24 24 25 25 25 24 24 24 24 24 24 24 24 24 23 23 23 22 21 21 22 21 21 19 18 18 17 17 17 18 18 19 19 20 20 21 22 22 22 23 23 25

GEFSNGP_500_meanwind_240.txt.gz
Wind_Speed
23 24 23 23 22 22 23 24 25 23 23 22 23 23 23 22 22 23 23 23 22 23 23 23 23 23 23 23 22 22 22 22 21 20 20 20 20 20 20 19 19 20 19 19
23 23 24 24 23 23 24 24 25 25 24 24 24 23 23 23 23 24 24 24 23 24 24 23 23 22 22 23 23 22 22 22 22 22 22 22 22 22 22 21 21 20 21 21
23 23 25 24 22 23 24 25 25 26 25 24 24 24 23 24 24 24 24 24 24 24 24 24 24 23 23 23 23 23 23 23 23 23 23 23 23 23 23 23 23 22 22 22
23 23 25 23 22 23 23 24 25 25 24 24 24 24 24 25 25 24 25 25 25 25 25 24 24 24 23 23 23 23 23 23 23 23 24 24 25 25 24 24 24 24 23 24
24 23 23 22 22 22 23 23 24 25 24 24 25 25 25 25 25 25 25 25 26 26 26 25 25 24 24 24 24 23 24 24 24 25 25 25 25 25 26 25 25 25 25 25
23 23 23 20 21 22 23 23 23 24 25 25 26 25 24 24 25 26 26 26 26 26 26 26 26 25 25 25 25 25 24 24 25 25 26 26 26 26 26 26 26 27 26 26
22 23 23 22 22 22 22 22 22 23 25 25 26 25 24 25 25 26 26 26 26 26 26 26 26 26 26 26 25 25 25 25 25 26 27 27 27 27 27 27 28 28 28 28
23 23 22 22 23 23 23 23 23 24 25 25 25 25 26 26 26 26 26 26 26 27 26 26 26 26 26 26 27 27 27 27 27 28 28 28 28 28 28 29 29 29 29 28
24 23 23 23 23 24 24 24 24 25 26 26 26 26 27 27 27 27 27 27 27 27 27 27 27 27 27 27 27 28 28 29 29 30 30 30 30 30 30 30 30 30 30 30
23 23 24 24 24 25 26 26 26 27 27 27 27 27 28 27 27 27 27 27 27 28 27 27 28 28 28 28 29 30 30 30 31 31 31 31 32 32 32 32 32 32 31 32
23 23 24 23 24 25 26 26 26 27 27 27 27 27 27 27 27 27 27 27 27 28 28 27 28 29 29 30 30 31 31 31 31 32 32 32 33 33 33 34 34 33 33 33
23 23 24 23 24 25 26 26 26 26 25 26 27 27 27 27 26 27 27 27 28 28 28 28 28 29 30 30 31 31 32 32 32 32 33 33 33 33 33 34 34 33 33 34
24 24 23 23 24 24 24 24 25 25 25 26 26 26 27 26 26 26 27 28 28 28 28 28 29 29 30 31 31 31 32 32 33 33 33 33 33 33 33 33 33 34 34 34
24 24 23 23 24 23 24 25 26 26 26 26 26 27 27 28 27 28 28 28 28 28 29 29 30 30 30 31 31 32 32 33 33 34 34 34 34 34 33 33 34 34 34 34
23 23 23 23 23 23 23 24 25 25 26 26 27 27 28 28 28 29 29 29 29 28 29 30 30 30 31 31 32 32 32 33 34 34 34 34 34 35 35 34 34 34 35 35
22 22 22 22 22 23 25 25 26 26 27 27 28 28 28 29 29 29 30 30 29 29 29 30 30 30 31 31 32 32 33 33 33 33 34 33 33 33 33 34 34 34 34 35
21 21 22 22 23 24 25 25 26 26 26 26 27 27 28 28 28 29 29 29 29 30 30 30 30 30 31 31 32 32 32 32 33 33 32 32 32 32 31 31 31 32 33 34
22 22 23 24 24 24 24 25 25 25 26 25 26 26 27 27 27 27 27 28 28 29 29 29 30 30 31 31 31 31 31 32 32 32 32 31 30 29 29 29 29 29 30 30
23 23 23 24 24 24 24 24 24 25 25 25 25 25 26 26 26 26 26 27 28 28 28 28 29 30 30 31 31 31 32 31 31 31 30 30 29 28 27 26 27 27 27 27
23 23 24 24 24 24 24 24 24 24 24 24 24 25 25 26 26 26 26 27 27 27 27 27 28 28 29 30 30 30 30 30 29 29 29 28 27 26 26 26 25 25 25 25
24 24 25 25 25 24 24 24 24 24 24 25 25 25 26 26 26 26 27 27 27 27 27 28 28 29 29 30 30 29 29 29 28 28 27 27 26 25 25 24 24 24 24 24
25 25 26 26 26 26 25 25 25 25 25 26 26 26 26 26 27 26 26 27 27 27 27 28 28 29 29 29 28 28 28 28 27 26 26 25 24 24 23 23 22 23 23 24
25 26 27 27 27 27 26 27 27 26 26 27 27 27 28 27 27 27 26 26 27 27 27 28 28 28 28 27 27 26 26 25 25 24 23 22 22 22 21 21 21 21 22 23
26 26 27 27 27 27 27 26 26 26 26 27 27 28 28 28 27 27 27 28 28 28 27 27 27 27 26 26 25 25 25 24 24 23 22 22 21 21 20 20 20 20 21 21
27 27 27 27 27 26 26 26 25 25 26 26 27 27 28 27 27 27 28 28 28 27 27 27 26 26 26 26 25 25 24 23 22 21 21 20 20 20 20 20 21 20 20 21
26 26 27 27 27 26 26 26 26 26 26 27 27 27 27 27 27 27 27 27 26 26 26 26 26 25 25 25 25 25 23 21 21 20 20 20 20 19 20 20 21 21 21 21
26 27 27 27 27 27 27 27 27 27 27 27 27 28 28 28 27 27 27 26 26 26 26 26 25 25 25 25 25 24 23 22 20 20 20 20 20 20 20 20 20 21 21 22

GEFSNGP_500_meanwind_246.txt.gz
Wind_Speed
19 19 19 19 19 19 20 21 22 22 22 21 22 21 21 21 21 21 21 21 20 20 21 21 21 21 21 20 20 20 20 20 20 21 20 20 20 20 19 19 19 20 20 20
19 20 20 19 20 21 21 21 22 23 22 21 22 22 22 22 22 21 21 21 22 21 21 21 22 22 22 21 21 21 21 21 21 21 20 20 20 20 20 20 20 20 20 21
19 20 20 20 20 21 21 21 22 23 22 21 22 22 21 22 22 21 21 22 22 22 22 22 22 23 22 22 22 21 21 21 21 21 21 22 22 21 21 21 21 22 22 22
20 20 20 19 20 20 20 21 21 22 21 20 20 21 21 21 22 21 21 22 23 23 23 22 23 22 22 22 22 22 22 22 22 22 23 23 23 23 23 23 23 23 23 24
20 20 20 19 19 19 20 20 21 22 21 21 21 21 21 21 21 22 22 22 23 23 22 22 22 22 22 22 23 23 23 23 23 24 24 23 24 24 24 24 25 25 25 25
20 21 21 21 20 20 20 20 20 21 21 21 21 21 21 21 21 21 22 23 23 23 23 22 22 22 22 23 23 23 23 23 24 24 25 25 25 25 26 26 26 26 26 26
21 22 22 22 22 22 21 21 21 21 21 21 21 21 21 21 21 22 22 22 23 24 24 23 23 23 23 24 23 23 24 25 25 26 26 26 26 27 27 27 28 28 28 28
21 22 23 23 23 23 22 22 22 21 22 22 21 21 21 21 22 23 23 23 23 24 24 24 24 24 24 24 24 24 24 25 25 25 26 27 28 28 28 28 29 29 29 29
22 22 23 23 23 23 23 23 22 22 22 22 22 21 21 21 22 23 23 23 24 24 25 24 25 25 25 25 25 25 25 25 26 26 27 27 28 29 29 30 30 30 30 30
22 22 23 22 22 23 23 22 22 22 22 22 22 21 21 21 22 23 24 24 24 25 25 25 25 25 25 26 26 26 26 27 27 28 28 28 29 30 30 31 31 31 31 30
23 23 23 23 23 23 23 22 22 22 22 22 22 22 22 22 23 23 24 24 24 24 24 25 25 25 25 26 26 27 27 27 28 28 28 29 29 30 30 30 31 31 31 32
22 22 23 23 23 23 23 22 21 21 22 22 22 22 23 23 23 23 23 24 24 24 24 25 25 25 26 27 27 27 27 28 28 29 29 30 30 30 31 31 32 32 32 33
23 23 23 23 23 23 22 22 22 22 22 22 22 22 23 23 23 23 24 24 24 24 25 25 26 26 27 28 28 28 28 29 29 30 30 31 31 31 31 32 32 32 32 32
24 23 23 23 24 23 23 23 23 22 22 23 23 23 23 23 24 24 24 24 25 25 26 26 26 27 27 28 28 28 29 29 30 31 31 31 31 31 31 31 31 31 32 33
24 24 23 23 23 23 22 23 23 23 23 23 23 23 24 24 24 24 24 25 25 26 26 27 27 27 28 28 28 29 29 29 30 30 30 31 31 31 31 30 30 31 31 32
23 23 23 22 22 21 22 22 22 22 23 22 22 23 24 24 24 25 25 25 26 26 26 26 27 27 27 28 28 29 29 29 29 30 30 30 30 30 30 30 30 30 31 31
22 22 22 22 22 22 23 23 23 22 22 22 23 23 23 25 25 25 26 26 26 26 26 26 27 27 27 28 28 29 29 29 30 30 30 31 31 30 30 30 30 30 29 30
23 22 22 22 23 22 22 23 23 24 24 23 23 24 24 24 24 25 25 26 26 26 26 26 27 27 27 28 29 29 29 30 30 30 30 31 30 30 29 30 30 30 29 29
22 22 22 23 23 23 23 22 23 24 24 24 24 24 24 24 24 25 25 25 25 26 26 26 27 28 28 28 29 29 30 30 30 30 30 30 29 29 29 29 29 29 29 29
21 22 22 23 24 24 24 23 24 24 25 25 25 24 24 25 25 25 25 26 26 27 27 27 27 27 28 28 28 29 29 29 29 29 29 29 29 29 29 29 28 28 28 28
22 22 22 23 24 24 24 24 25 25 25 25 26 26 26 26 26 26 26 26 27 27 28 28 28 28 28 28 28 28 28 28 28 28 28 28 28 28 29 29 29 28 28 28
23 23 24 24 24 24 25 25 25 25 26 26 26 27 27 27 27 28 27 27 27 28 28 28 28 28 28 28 28 28 27 27 27 27 28 28 28 29 29 28 28 28 28 28
24 24 24 24 24 25 25 25 25 26 26 26 26 27 27 27 28 28 28 28 28 28 28 28 27 27 27 27 26 26 26 26 27 27 28 28 28 29 28 28 27 27 26 27
23 24 25 25 25 25 25 25 25 25 25 25 26 26 26 27 27 28 28 28 27 27 27 27 27 27 26 26 26 26 26 26 27 27 28 27 28 27 27 26 26 26 26 25
24 24 25 25 25 25 25 25 25 25 25 26 26 26 27 27 27 27 28 27 27 27 27 27 26 26 26 26 27 26 26 27 27 27 27 26 26 25 24 24 25 25 26 26
24 24 25 25 26 26 26 26 26 26 27 27 27 27 27 27 27 27 27 27 27 26 27 27 26 26 26 26 26 26 26 26 26 26 26 25 24 23 23 24 24 24 24 24
25 25 26 26 26 26 26 26 26 26 27 27 27 28 28 28 28 27 27 27 27 27 26 27 26 26 26 26 26 26 26 26 26 25 24 24 23 23 23 23 23 23 23 22

GEFSNGP_500_meanwind_252.txt.gz
Wind_Speed
20 20 20 20 19 19 20 21 22 21 22 23 23 23 24 24 24 25 24 24 22 22 23 23 22 22 22 21 21 21 21 21 21 21 21 21 20 20 19 19 19 19 19 19
21 20 20 20 20 21 21 21 22 22 22 23 23 24 24 25 25 24 23 23 23 23 23 23 23 23 22 22 22 22 22 21 21 21 21 20 20 20 20 20 20 20 20 20
21 21 22 21 20 21 22 22 23 24 24 24 24 23 25 26 26 24 23 24 24 23 23 23 24 23 22 22 22 22 22 22 22 22 22 22 21 21 21 21 21 22 22 22
22 22 22 21 21 22 23 23 24 24 24 24 24 24 25 26 26 24 23 23 23 23 23 23 23 23 23 23 23 23 23 23 23 23 23 23 23 22 22 22 22 22 23 23
23 23 22 22 22 22 23 23 24 24 24 24 24 24 24 25 26 25 23 23 23 23 23 23 23 23 23 23 24 24 24 24 24 24 23 23 23 24 24 24 24 24 24 25
24 24 24 23 23 23 24 25 25 25 24 24 25 25 24 24 26 25 24 24 23 23 23 23 23 24 23 23 24 24 24 24 24 24 24 24 25 25 26 26 25 25 25 25
24 25 25 25 24 24 25 26 26 25 25 25 25 25 24 24 25 24 25 25 24 24 24 23 24 24 24 24 24 25 25 25 25 24 25 25 26 26 27 26 26 26 27 27
24 25 25 25 26 25 26 26 26 26 26 26 26 25 25 25 25 24 25 25 25 25 25 24 24 25 25 25 25 25 26 26 26 26 26 26 27 27 27 28 28 28 28 28
25 26 26 26 27 27 27 28 27 28 27 27 27 26 25 25 25 24 24 25 25 25 25 25 25 25 26 26 26 26 26 27 26 26 27 27 28 28 28 29 29 29 29 29
26 26 26 27 28 28 28 28 28 28 28 28 27 26 26 25 25 25 25 25 25 25 26 26 26 26 26 26 26 27 27 27 27 27 27 28 28 29 29 29 29 30 30 30
27 27 27 26 27 27 27 28 27 27 27 27 27 26 26 26 25 25 25 25 25 25 26 27 27 27 28 28 28 28 28 28 28 28 28 29 29 29 29 29 29 29 30 30
27 28 28 27 26 27 27 27 26 26 27 26 26 26 26 26 26 26 26 26 25 26 26 26 27 27 28 28 28 28 29 29 29 29 29 30 30 29 29 29 30 30 30 30
28 28 28 28 27 28 28 27 27 27 27 26 26 26 26 26 26 26 26 25 25 25 26 26 27 28 28 28 28 28 29 28 28 29 29 29 29 29 29 29 30 30 30 31
28 28 28 28 28 28 27 27 27 27 27 26 26 26 26 26 26 26 25 25 25 26 26 27 27 27 28 28 27 28 28 28 29 29 30 30 29 29 29 29 29 29 29 30
27 28 28 28 28 28 27 27 27 27 26 26 26 26 26 26 26 26 26 26 26 27 27 28 28 27 27 28 28 28 28 29 29 29 29 30 30 30 30 30 30 30 30 30
26 27 27 27 27 27 26 26 26 26 26 26 26 26 26 26 27 27 27 26 27 28 28 29 28 28 28 28 28 29 29 29 29 29 29 29 29 29 30 30 31 31 30 30
25 26 26 27 27 27 26 26 26 26 26 27 26 27 27 27 27 27 27 27 28 29 29 29 29 28 28 28 28 29 29 29 29 29 29 30 30 30 30 30 31 31 31 31
26 26 26 26 26 26 26 26 26 26 27 27 27 27 27 28 28 28 28 29 30 30 29 29 29 28 28 29 29 29 30 29 30 30 30 30 30 31 31 31 31 31 31 31
26 27 26 26 25 25 25 25 26 27 27 28 28 27 27 28 28 28 30 30 30 30 30 29 29 29 29 29 30 30 30 30 30 31 31 31 31 31 31 32 32 32 32 32
26 26 25 25 25 25 26 25 26 27 28 28 29 29 29 29 29 29 29 30 29 29 29 29 28 29 29 30 31 31 31 31 31 30 31 31 31 31 31 31 32 32 32 32
26 26 25 25 25 26 26 26 27 27 28 29 30 30 30 29 29 29 29 29 29 30 30 29 29 30 30 31 31 31 31 31 31 31 31 31 31 31 31 31 31 31 31 31
25 25 25 25 26 26 27 27 27 27 28 29 30 30 30 30 29 29 29 29 29 30 30 30 30 30 30 30 30 30 30 30 30 31 31 31 30 30 30 30 30 31 30 30
26 26 26 26 26 26 26 27 27 27 28 29 29 29 29 30 30 29 29 29 29 29 30 29 29 29 29 29 29 29 30 29 29 29 29 29 29 29 30 30 30 30 30 30
27 26 25 25 26 26 26 26 27 27 27 28 28 29 29 30 30 30 30 30 30 29 29 30 30 30 30 30 30 30 30 29 29 29 28 28 29 29 29 29 29 29 28 28
27 26 25 26 26 26 26 27 27 28 28 27 28 29 30 30 30 29 29 29 29 29 29 30 30 30 30 30 30 30 29 29 28 28 28 28 28 28 29 28 29 29 28 28
27 26 26 27 27 28 28 28 27 27 27 27 28 29 29 29 29 29 29 29 29 29 29 29 29 30 30 30 29 29 28 28 28 28 28 28 28 28 28 29 29 29 29 29
27 27 27 28 28 28 28 28 28 28 29 29 29 29 28 28 28 28 28 28 28 28 28 28 29 29 29 29 28 28 28 29 28 28 28 28 28 29 29 29 29 29 29 29